Weather History for KFTK - August, 2013

Change the Weather History Date:

Monday, August 12, 2013

  Actual Average Record
Temperature  
Mean Temperature 74 °F -  
Max Temperature 85 °F 83 °F 98 °F (2005)
Min Temperature 65 °F 63 °F 52 °F (2012)
Cooling Degree Days 10    
Growing Degree Days 24 (Base 50)    
Moisture  
Dew Point 70 °F    
Average Humidity 90    
Maximum Humidity 100    
Minimum Humidity 70    
Precipitation  
Precipitation 2.19 in - - ()
Sea Level Pressure  
Sea Level Pressure 30.01 in    
Wind  
Wind Speed 3 mph (SSW)    
Max Wind Speed 25 mph    
Max Gust Speed 34 mph    
Visibility 6 miles    
Events Fog , Rain , Thunderstorm    
Averages and records for this station are not official NWS values.
T = Trace of Precipitation, MM = Missing Value Source: NWS Daily Summary

Daily Weather History Graph

Daily Weather History Graph

Search for Another Location

Airport or City:

Trip Planner

Search our weather history database for the weather conditions in past years. The results will help you decide how hot, cold, wet, or windy it might be!

Date:

Astronomy

Aug. 12, 2013 Rise Set
Actual Time 6:56 AM EDT 8:40 PM EDT
Civil Twilight 6:28 AM EDT 9:08 PM EDT
Nautical Twilight 5:54 AM EDT 9:42 PM EDT
Astronomical Twilight 5:18 AM EDT 10:18 PM EDT
Moon 12:39 PM EDT (8/12) 11:40 PM EDT (8/12)
Length of Visible Light 14h 39m
Length of Day
13h 43m
Waxing Crescent, 31% of the Moon is Illuminated
Aug 12
Waxing Crescent
Aug 14
First Quarter
Aug 20
Full
Aug 28
Last Quarter
Sep 5
New

Hourly Weather History & Observations

Time (EDT) Temp. Heat Index Dew Point Humidity Pressure Visibility Wind Dir Wind Speed Gust Speed Precip Events Conditions
12:58 AM 66.4 °F - 65.5 °F 97% 30.09 in 6.0 mi Calm Calm - N/A   Clear
1:58 AM 65.8 °F - 65.3 °F 98% 30.09 in 7.0 mi Calm Calm - N/A   Clear
2:38 AM 66.2 °F - 64.4 °F 94% 30.09 in 2.0 mi Calm Calm - N/A   Clear
2:43 AM 66.2 °F - 64.4 °F 94% 30.09 in 0.5 mi West 2.3 mph - N/A Fog Fog
2:53 AM 66.2 °F - 66.2 °F 100% 30.08 in 1.0 mi Calm Calm - N/A   Clear
2:58 AM 66.2 °F - 66.2 °F 100% 30.07 in 1.8 mi Calm Calm - N/A   Clear
3:03 AM 68.0 °F - 68.0 °F 100% 30.08 in 3.0 mi North 1.2 mph - N/A   Clear
3:38 AM 66.2 °F - 66.2 °F 100% 30.07 in 1.5 mi Calm Calm - N/A   Clear
3:43 AM 66.2 °F - 66.2 °F 100% 30.07 in 0.8 mi North 2.3 mph - N/A   Clear
3:48 AM 66.2 °F - 66.2 °F 100% 30.07 in 1.2 mi WNW 2.3 mph - N/A   Clear
3:53 AM 66.2 °F - 66.2 °F 100% 30.08 in 5.0 mi Calm Calm - N/A   Partly Cloudy
3:58 AM 65.5 °F - 65.5 °F 100% 30.07 in 6.0 mi Calm Calm - N/A   Scattered Clouds
4:58 AM 66.7 °F - 66.2 °F 98% 30.06 in 10.0 mi Calm Calm - N/A   Mostly Cloudy
5:58 AM 67.6 °F - 66.6 °F 96% 30.05 in 10.0 mi Calm Calm - N/A   Mostly Cloudy
6:58 AM 67.6 °F - 66.9 °F 98% 30.05 in 9.0 mi ESE 1.2 mph - N/A   Scattered Clouds
7:58 AM 69.1 °F - 68.5 °F 98% 30.05 in 10.0 mi Calm Calm - N/A   Clear
8:58 AM 74.1 °F - 69.1 °F 84% 30.04 in 10.0 mi SE 2.3 mph - N/A   Partly Cloudy
9:58 AM 76.1 °F - 69.3 °F 79% 30.04 in 10.0 mi SE 3.5 mph - N/A   Scattered Clouds
10:30 AM 77.0 °F - 69.8 °F 78% 30.05 in 10.0 mi South 5.8 mph - N/A Rain Light Rain
10:40 AM 75.2 °F - 71.6 °F 89% 30.05 in 10.0 mi South 5.8 mph - N/A   Mostly Cloudy
10:44 AM 77.0 °F - 69.8 °F 78% 30.05 in 10.0 mi South 6.9 mph - N/A Rain Light Rain
10:49 AM 77.0 °F - 71.6 °F 83% 30.04 in 10.0 mi South 3.5 mph - N/A Rain Light Rain
10:54 AM 77.0 °F - 71.6 °F 83% 30.05 in 10.0 mi Variable 5.8 mph - N/A Rain Light Rain
10:55 AM 77.7 °F - 70.9 °F 79% 30.04 in 10.0 mi Variable 5.8 mph - 0.00 in Rain , Thunderstorm Light Thunderstorms and Rain
11:05 AM 77.0 °F - 71.6 °F 83% 30.05 in 1.2 mi SW 3.5 mph - N/A Rain , Thunderstorm Heavy Thunderstorms and Rain
11:07 AM 77.0 °F - 71.6 °F 83% 30.06 in 0.8 mi WSW 5.8 mph - N/A Rain , Thunderstorm Heavy Thunderstorms and Rain
11:13 AM 75.2 °F - 71.6 °F 89% 30.05 in 2.0 mi Variable 2.3 mph - N/A Rain , Thunderstorm Heavy Thunderstorms and Rain
11:17 AM 73.4 °F - 71.6 °F 94% 30.05 in 3.0 mi Calm Calm - N/A Rain , Thunderstorm Light Thunderstorms and Rain
11:50 AM 77.0 °F - 75.2 °F 94% 30.05 in 7.0 mi South 8.1 mph - N/A Thunderstorm Overcast
11:55 AM 76.5 °F - 74.3 °F 93% 30.04 in 7.0 mi South 8.1 mph - 0.36 in   Overcast
12:09 PM 77.0 °F - 75.2 °F 94% 30.04 in 7.0 mi SSW 6.9 mph - N/A   Overcast
12:34 PM 78.8 °F - 73.4 °F 83% 30.04 in 10.0 mi South 9.2 mph - N/A   Mostly Cloudy
12:55 PM 79.5 °F - 74.5 °F 84% 30.02 in 10.0 mi SSW 8.1 mph - N/A   Mostly Cloudy
1:14 PM 82.4 °F 88.2 °F 73.4 °F 74% 30.01 in 10.0 mi SSW 12.7 mph 18.4 mph N/A   Mostly Cloudy
1:55 PM 82.2 °F 87.8 °F 73.0 °F 74% 29.99 in 10.0 mi SW 9.2 mph - N/A   Mostly Cloudy
2:41 PM 84.2 °F 90.9 °F 73.4 °F 70% 29.98 in 10.0 mi SSW 11.5 mph - N/A   Mostly Cloudy
2:55 PM 83.3 °F 89.0 °F 72.7 °F 70% 29.96 in 10.0 mi SSW 8.1 mph - N/A   Mostly Cloudy
3:58 PM 84.2 °F 90.9 °F 73.4 °F 70% 29.94 in 10.0 mi SSW 9.2 mph - N/A   Mostly Cloudy
4:42 PM 84.2 °F 90.9 °F 73.4 °F 70% 29.94 in 10.0 mi South 6.9 mph - N/A Thunderstorm Thunderstorm
4:58 PM 82.6 °F 88.3 °F 73.0 °F 73% 29.93 in 10.0 mi SSW 6.9 mph - N/A Thunderstorm Thunderstorm
5:02 PM 82.4 °F 88.2 °F 73.4 °F 74% 29.96 in 0.6 mi NNW 17.3 mph 24.2 mph N/A Rain , Thunderstorm Thunderstorms and Rain
5:06 PM 80.6 °F 85.4 °F 73.4 °F 79% 29.96 in 0.5 mi North 25.3 mph 34.5 mph N/A Rain , Thunderstorm Heavy Thunderstorms and Rain
5:16 PM 71.6 °F - 68.0 °F 88% 29.97 in 0.5 mi North 6.9 mph 31.1 mph N/A Rain , Thunderstorm Heavy Thunderstorms and Rain
5:21 PM 71.6 °F - 68.0 °F 88% 29.99 in 0.2 mi Calm Calm - N/A Rain , Thunderstorm Heavy Thunderstorms and Rain
5:41 PM 71.6 °F - 68.0 °F 88% 29.96 in 3.0 mi Variable 1.2 mph - N/A Rain , Thunderstorm Light Thunderstorms and Rain
5:46 PM 71.6 °F - 69.8 °F 94% 29.96 in 4.0 mi South 8.1 mph - N/A Rain , Thunderstorm Light Thunderstorms and Rain
5:51 PM 71.6 °F - 69.8 °F 94% 29.95 in 6.0 mi SSE 8.1 mph - N/A Rain , Thunderstorm Light Thunderstorms and Rain
5:58 PM 71.1 °F - 69.4 °F 95% 29.95 in 6.0 mi SE 6.9 mph - 1.65 in Rain , Thunderstorm Light Thunderstorms and Rain
6:02 PM 69.8 °F - 69.8 °F 100% 29.95 in 7.0 mi SE 6.9 mph - N/A Rain , Thunderstorm Light Rain
6:06 PM 69.8 °F - 69.8 °F 100% 29.94 in 10.0 mi SE 9.2 mph - N/A Thunderstorm Mostly Cloudy
6:58 PM 71.1 °F - 70.2 °F 97% 29.95 in 10.0 mi SW 4.6 mph - 0.00 in   Overcast
7:17 PM 71.6 °F - 69.8 °F 94% 29.95 in 6.0 mi SSW 3.5 mph - N/A Rain Light Rain
7:52 PM 71.6 °F - 71.6 °F 100% 29.96 in 2.5 mi SW 3.5 mph - N/A Rain Rain
7:58 PM 71.1 °F - 70.9 °F 99% 29.94 in 2.5 mi SSW 4.6 mph - 0.09 in Rain Rain
8:02 PM 71.6 °F - 71.6 °F 100% 29.95 in 3.0 mi SSW 4.6 mph - N/A Rain Rain
8:58 PM 70.9 °F - 70.9 °F 100% 29.90 in 4.0 mi ESE 2.3 mph - 0.08 in Rain Light Rain
9:00 PM 71.6 °F - 71.6 °F 100% 29.91 in 5.0 mi SE 3.5 mph - N/A   Mostly Cloudy
9:58 PM 70.3 °F - 70.2 °F 99% 29.94 in 5.0 mi SSW 3.5 mph - 0.01 in   Overcast
10:58 PM 69.3 °F - 68.9 °F 99% 29.94 in 10.0 mi SSW 6.9 mph - N/A   Overcast
11:58 PM 68.5 °F - 68.2 °F 99% 29.94 in 10.0 mi SW 4.6 mph - N/A   Overcast